Location: Sungai Bunut
(2.6333°N, 113.7333°E)
Time: 16:25:01
(UTC+00:00)

Altair - Pass Details

Date: 09 December 2023
Orbit: 1501 x 1682 km, 47.2° (Epoch: 24 February)

Event Time Altitude Azimuth Distance (km) Brightness Sun altitude
Rises 23:00:20 0° 269° (W) 4,909 9.6 8.8°
Reaches altitude 10° 23:06:50 10° 299° (WNW) 3,886 9.0 10.3°
Maximum altitude 23:09:50 12° 317° (NW) 3,737 9.0 11.0°
Drops below altitude 10° 23:12:50 10° 336° (NNW) 3,844 9.2 11.7°
Sets 23:19:14 0° 6° (N) 4,778 9.9 13.1°
